Theta_e
307 307 307 307 310 312 311 310 311 311 311 311 312 311 310 311 310 310 311 307 309 308 308 309 310 311 311 309 311 314 315 318 320 322 324 325 334 335 336 331 333 336 347 347 345
307 307 306 306 307 308 309 310 308 308 309 311 312 312 312 311 310 310 305 305 307 308 311 314 311 311 308 309 310 313 315 317 318 320 322 324 327 331 332 328 329 332 334 340 346
307 307 306 305 306 307 308 312 310 309 310 313 313 312 311 309 312 314 316 317 310 310 311 311 310 310 308 309 311 314 315 315 318 318 320 321 324 327 327 327 328 329 333 334 334
305 306 306 305 305 305 307 307 312 310 310 309 313 312 311 311 321 322 320 312 314 310 312 311 308 310 310 310 312 313 315 316 317 317 319 319 324 327 326 325 326 327 326 325 322
304 304 304 304 304 305 305 306 308 311 309 310 311 312 309 313 314 309 316 312 313 312 310 307 308 310 312 312 313 314 315 317 317 317 317 317 320 325 325 323 323 325 324 323 324
302 302 302 303 303 304 305 305 307 309 310 311 311 312 311 313 309 320 315 312 314 312 311 308 313 313 313 312 312 314 315 316 316 317 316 317 319 319 320 322 321 321 323 322 322
301 301 301 301 302 303 304 305 306 308 310 310 312 313 313 312 314 319 315 314 311 310 309 310 313 315 314 314 314 315 316 316 317 318 318 318 318 318 319 319 319 319 320 321 321
300 300 301 301 302 303 305 306 307 309 309 311 312 314 315 310 314 312 315 315 314 312 311 315 316 313 314 313 315 315 315 315 317 318 318 317 316 319 318 317 318 318 319 320 318
302 301 302 302 302 304 305 307 308 313 314 313 312 314 318 315 316 315 314 316 317 317 316 317 316 314 314 314 313 314 314 316 317 317 317 316 316 318 317 318 317 317 318 318 318
307 307 305 303 303 306 307 308 310 313 314 314 315 316 318 320 314 315 319 318 315 315 315 318 315 316 313 313 313 315 315 315 316 317 316 316 316 316 317 317 318 317 317 318 318
311 309 306 305 305 306 306 309 317 319 318 320 319 318 318 318 317 316 319 318 316 316 316 316 314 315 316 315 315 316 317 317 316 317 317 316 316 316 316 317 319 318 318 318 319
311 310 306 305 306 306 306 310 316 316 319 320 320 315 317 320 317 317 319 317 317 317 317 317 315 316 318 318 318 317 317 316 318 319 319 318 317 317 318 318 317 317 317 318 318
311 310 308 305 307 308 307 310 313 315 317 319 322 323 322 319 319 319 318 317 317 318 318 316 318 319 318 317 318 316 317 318 318 318 317 317 317 319 319 319 318 317 317 318 318
311 310 307 306 311 314 314 318 315 314 320 323 322 322 323 318 319 317 318 318 318 317 318 318 318 319 318 317 316 315 317 318 318 316 315 317 315 317 318 316 316 317 316 317 318
311 310 308 306 309 313 319 317 318 316 331 328 323 321 320 318 318 318 317 318 319 319 318 319 318 317 317 317 316 316 316 316 316 315 314 315 314 315 316 318 318 317 316 317 317
310 309 306 312 312 318 317 317 318 325 333 329 321 321 319 318 318 320 319 319 318 317 317 317 317 317 317 317 317 317 316 316 314 314 315 318 318 317 317 317 318 319 318 318 316
310 309 306 309 317 319 318 316 325 330 329 331 323 320 320 319 319 320 320 318 316 316 317 317 317 316 317 317 317 316 314 313 314 315 316 317 317 317 317 319 319 319 319 319 319
308 309 313 315 316 318 317 321 330 329 323 327 320 321 321 320 318 320 319 318 317 317 318 321 324 322 321 318 316 316 316 313 316 318 318 320 322 320 323 324 323 323 321 320 319
308 311 316 320 318 317 320 330 333 325 321 321 321 321 322 326 326 324 323 321 320 315 317 319 323 322 322 322 321 322 317 316 320 320 320 320 321 322 325 324 323 323 322 321 319
308 311 319 321 317 319 323 328 328 321 320 320 322 323 323 325 327 327 327 326 325 323 322 324 327 323 323 323 323 323 322 322 320 325 325 323 323 326 329 327 326 324 323 322 319
309 321 321 319 319 321 325 327 326 321 319 320 321 322 321 322 322 323 325 326 325 322 321 323 324 325 322 323 323 323 325 322 319 326 330 331 328 326 327 326 324 322 322 320 318
311 324 319 319 324 325 328 327 324 319 320 320 320 320 321 321 322 322 325 325 322 322 323 321 323 326 324 320 319 318 321 327 330 327 325 324 325 324 323 323 323 323 322 321 321
311 319 318 319 326 327 324 324 322 320 318 318 319 318 319 320 321 322 323 321 320 322 323 321 322 323 321 319 320 324 324 322 322 327 331 330 329 324 324 322 322 323 322 321 320
312 322 321 320 320 321 320 320 320 318 317 316 317 317 317 317 316 320 319 320 319 319 319 320 321 322 321 321 320 322 323 323 323 327 330 329 327 326 327 323 322 320 319 320 320
313 320 319 316 318 319 319 318 318 320 316 315 316 317 317 316 315 316 317 317 317 319 318 319 319 319 318 317 317 318 318 318 325 323 326 324 326 323 321 322 319 318 318 320 320
315 315 314 315 319 319 318 320 318 317 315 314 316 314 314 316 315 315 314 316 317 318 318 319 319 317 318 317 317 318 318 317 317 319 321 322 322 319 317 315 318 318 318 318 317
311 313 314 317 317 318 318 317 316 314 314 314 313 313 313 313 313 312 312 313 314 315 317 319 317 315 317 318 321 323 320 319 318 317 317 317 316 315 318 318 318 316 315 315 314
Wind_Speed
22 23 24 24 22 19 16 15 14 14 14 15 16 17 19 20 23 20 13 24 11 22 17 15 13 20 21 8 11 11 9 13 16 17 18 8 8 1 17 1 5 8 11 13 23
22 23 24 25 24 22 21 16 15 15 16 15 16 16 17 16 19 22 36 28 21 15 16 16 10 13 8 9 7 8 11 17 11 15 18 13 4 11 9 5 4 6 11 8 22
22 23 23 24 26 25 22 19 16 15 14 14 13 13 13 11 7 9 5 12 27 22 19 16 18 12 9 9 12 13 15 9 16 20 20 17 7 12 7 3 6 6 9 11 6
22 23 24 25 26 26 25 23 18 16 14 13 12 12 13 5 3 2 6 2 18 27 20 18 6 7 9 16 16 11 15 16 15 13 18 14 8 6 4 8 6 4 3 8 9
22 23 25 25 27 27 26 26 23 18 15 13 9 9 5 4 12 18 9 6 18 23 18 13 8 10 9 12 15 17 17 16 18 13 15 9 7 3 7 5 6 3 7 7 3
21 23 23 25 27 28 28 28 24 23 16 13 8 4 3 7 13 10 6 9 13 20 16 17 10 10 9 14 14 12 17 18 12 17 12 7 5 2 5 4 7 7 3 4 6
23 23 24 26 26 27 29 30 28 26 16 11 8 4 7 18 5 5 12 5 15 19 10 30 31 10 8 8 16 14 10 11 11 6 6 5 6 8 6 8 8 6 7 4 4
26 27 27 26 30 30 32 32 27 21 13 10 7 6 8 18 12 26 15 10 15 21 28 28 26 9 5 8 10 6 6 3 6 7 10 6 8 7 9 9 11 10 10 7 7
26 27 29 31 32 34 35 34 25 12 9 8 5 6 9 16 10 18 25 16 19 18 20 19 11 5 9 6 5 5 4 4 8 8 10 10 6 10 10 14 13 11 9 7 6
27 30 32 31 36 30 29 27 12 6 4 6 8 4 9 6 15 15 16 18 5 7 7 2 4 2 5 3 5 7 5 6 9 17 12 13 11 11 11 8 15 12 9 9 8
31 32 32 37 29 25 23 7 1 3 10 12 13 8 14 9 12 13 16 12 8 6 6 7 3 7 11 11 13 12 8 13 12 16 12 16 12 13 11 7 6 8 9 8 9
33 36 37 37 28 22 14 5 11 5 7 23 19 19 23 19 7 10 18 6 5 7 9 4 8 13 15 16 15 15 12 11 9 6 4 2 8 8 7 5 7 10 11 11 9
36 37 41 40 33 11 15 20 23 20 5 11 18 12 14 8 9 8 11 9 8 9 9 9 12 16 15 13 14 11 9 4 5 10 7 5 4 4 5 3 7 8 9 9 12
38 37 43 40 5 4 8 15 12 13 4 6 8 10 10 4 6 13 12 8 7 10 11 8 12 15 15 11 6 5 8 4 7 8 4 2 5 6 5 11 11 11 10 10 11
40 40 40 26 17 4 11 18 4 7 3 2 8 14 10 7 6 9 17 10 10 10 8 13 9 8 9 6 7 7 9 8 8 6 6 9 2 6 7 7 15 17 11 11 12
39 44 38 7 8 11 13 11 9 1 5 5 7 7 8 10 9 4 6 4 4 8 13 12 13 6 7 8 5 7 5 5 5 1 2 4 4 6 10 9 8 6 18 14 11
44 43 32 11 6 7 12 2 2 4 7 12 7 14 12 11 12 11 7 5 5 3 6 8 13 13 13 5 8 7 3 3 5 4 5 8 6 14 9 12 16 21 8 11 15
47 34 14 18 11 15 10 2 3 7 12 11 14 7 10 13 12 15 14 8 9 7 2 3 7 4 5 3 7 8 4 5 7 5 5 7 6 9 6 6 14 13 16 17 14
38 19 12 16 7 9 1 3 3 8 11 13 9 7 4 9 8 11 5 5 6 11 7 5 11 9 13 10 6 6 6 6 1 2 1 4 6 5 8 8 8 9 12 13 11
28 9 10 12 8 3 1 5 1 7 9 8 5 10 10 8 4 7 3 5 5 6 7 4 4 7 2 6 7 6 5 5 3 1 5 4 6 1 8 11 14 14 12 8 8
5 3 4 3 9 0 3 5 2 8 8 6 8 7 9 8 8 3 1 5 8 10 4 2 5 5 6 3 4 5 3 4 6 7 5 1 3 6 6 7 6 10 9 7 8
7 3 6 4 0 2 3 9 12 6 9 8 5 7 9 9 7 6 9 5 9 6 5 1 2 3 6 8 9 9 9 4 3 8 3 4 9 8 8 9 9 8 10 10 3
5 3 7 3 1 2 4 12 18 5 7 6 7 9 8 7 5 7 6 4 8 7 4 6 2 3 6 6 7 4 4 4 3 2 9 8 4 3 6 7 6 4 4 4 7
3 3 2 2 3 5 7 6 8 7 12 9 6 4 9 8 8 6 7 5 5 6 5 5 2 3 4 8 12 8 7 5 4 3 4 8 10 6 2 3 3 6 7 5 6
3 2 3 3 4 4 5 5 6 6 8 5 5 8 6 2 7 5 8 8 6 4 3 4 4 5 8 12 17 18 18 14 13 13 9 9 10 15 7 11 11 11 8 8 8
3 4 4 5 7 4 4 4 9 8 6 6 6 9 6 2 5 9 9 6 4 3 3 4 3 5 8 14 17 21 17 16 18 15 19 17 19 13 5 6 4 4 4 5 3
8 7 3 6 6 6 2 3 3 3 2 6 6 6 6 6 6 6 6 5 7 5 1 4 2 3 4 9 12 8 14 15 14 8 7 11 4 8 5 7 5 6 5 5 5
Wind_Direction
3 3 3 1 357 345 328 318 311 306 307 309 313 318 318 315 311 306 248 243 224 248 246 287 285 237 246 250 254 233 234 231 242 244 253 281 39 321 195 149 271 55 110 152 137
355 356 356 356 356 352 346 321 314 311 310 311 312 314 314 313 299 272 268 262 239 237 243 245 255 246 207 217 237 221 222 233 242 253 262 282 321 237 186 5 203 83 143 142 149
347 348 349 349 351 352 349 336 312 302 298 296 299 305 309 317 271 241 303 254 232 222 227 252 256 256 208 232 242 248 233 228 241 262 268 278 291 321 148 172 223 147 179 160 175
341 342 342 343 343 345 347 345 326 302 294 294 300 309 317 319 255 336 326 250 209 215 223 242 249 246 206 220 226 241 243 234 247 244 259 263 240 171 283 176 154 151 90 76 47
335 335 335 336 337 336 339 340 333 309 292 288 296 314 345 228 250 262 265 170 181 196 212 222 208 248 237 218 227 222 233 232 238 249 261 276 290 172 241 329 333 17 86 110 64
329 329 329 330 331 330 329 333 328 323 292 284 284 298 244 261 246 203 156 157 184 186 207 234 230 219 264 223 223 229 224 232 221 235 246 234 242 104 288 290 307 324 321 144 168
327 327 327 327 326 324 324 323 325 319 289 271 266 245 253 242 201 168 170 202 196 191 206 229 237 234 263 253 236 247 243 230 234 239 261 230 262 231 210 275 256 244 280 216 229
329 328 327 327 325 323 320 316 317 312 276 250 241 232 253 271 268 278 237 208 218 214 217 242 250 244 247 281 273 263 246 210 245 231 258 188 245 250 230 221 228 231 220 234 236
330 330 329 328 326 320 315 308 310 296 262 214 193 213 261 300 226 237 240 211 217 229 241 265 316 256 315 299 309 280 202 272 278 251 215 181 218 229 240 225 227 213 190 201 254
332 331 330 330 326 320 317 310 296 284 173 188 259 252 257 233 203 221 210 232 161 218 248 262 314 294 288 294 235 249 200 225 225 241 236 216 215 221 234 238 227 202 184 190 220
332 331 330 329 326 318 325 344 106 186 234 198 185 224 290 244 206 204 197 230 186 196 215 207 179 226 237 241 245 255 261 222 237 242 222 222 200 205 219 234 157 153 172 198 228
331 331 332 333 319 313 298 252 252 334 264 223 239 226 253 282 200 209 189 200 244 232 211 256 229 239 224 233 237 251 262 277 283 313 333 289 205 195 204 219 186 192 198 199 207
331 333 335 331 319 312 219 232 256 300 280 279 214 221 237 261 256 203 185 190 232 227 253 212 237 232 249 250 249 242 241 294 312 314 318 337 284 221 236 227 272 212 207 192 190
331 334 339 334 313 344 241 306 263 256 292 261 185 209 201 227 272 243 224 187 216 249 250 243 251 257 249 240 265 295 306 279 295 302 266 2 271 268 226 242 242 245 206 193 188
330 333 336 331 291 272 300 350 248 209 289 202 143 135 153 183 288 190 234 201 220 250 242 264 281 289 301 247 234 249 287 267 248 245 264 298 354 266 296 262 241 236 220 197 184
331 330 333 340 251 276 316 329 333 270 244 209 137 169 135 207 257 130 204 250 184 242 270 270 295 300 284 322 291 289 265 298 292 205 325 233 236 278 260 261 277 221 216 192 177
332 327 317 270 239 337 331 298 264 238 123 301 184 157 175 192 231 169 194 167 163 243 271 294 286 288 299 313 329 356 103 330 325 323 221 246 255 241 277 255 265 258 199 111 102
331 327 306 265 267 280 286 321 252 288 11 227 8 175 189 203 215 198 179 190 209 225 239 228 292 302 333 240 213 271 162 168 226 232 261 339 260 239 288 335 70 55 86 89 89
332 333 289 272 246 270 338 253 269 320 21 355 327 281 8 46 55 289 266 230 204 193 189 218 236 297 302 292 312 313 290 228 35 315 9 270 311 326 24 4 51 84 100 96 95
332 308 271 252 167 244 282 242 207 347 17 346 342 20 15 350 68 297 333 60 37 82 60 1 335 270 43 16 312 292 294 317 352 327 287 229 262 208 34 33 35 66 56 54 76
309 292 172 177 154 130 243 317 355 339 37 27 349 332 338 2 350 319 331 55 21 2 344 211 150 286 359 191 260 323 316 286 181 149 184 303 250 142 83 62 35 63 21 50 28
318 288 146 202 15 68 6 306 299 20 20 3 353 6 8 9 356 347 19 33 26 352 347 47 60 265 271 305 304 274 267 240 180 289 253 191 240 109 99 71 37 17 15 354 3
317 268 232 203 285 133 195 275 270 48 40 20 351 21 0 5 345 5 53 57 0 38 38 341 323 346 316 280 282 63 32 45 41 217 228 244 242 93 65 47 38 21 319 335 325
294 307 9 19 33 25 355 336 353 86 61 31 344 9 30 14 335 312 317 77 34 67 40 9 312 212 223 283 305 292 279 281 119 272 349 260 284 246 237 183 241 274 277 255 266
247 308 -0 321 359 4 312 305 305 38 34 35 359 74 46 338 335 294 18 346 2 141 39 25 255 271 286 295 289 282 280 267 208 218 225 248 258 282 285 202 201 204 234 249 254
308 12 345 290 290 296 243 332 39 27 30 330 32 23 357 275 285 301 317 347 296 97 66 358 293 325 294 280 276 275 265 260 257 242 236 243 249 242 233 50 97 160 183 236 292
338 327 342 291 302 286 245 82 16 31 88 89 17 359 330 329 348 299 291 263 251 272 243 171 238 359 265 317 344 302 250 251 259 247 253 256 289 16 76 74 21 351 342 309 306